^^
Paulen-Weather Station Historical Data
Daily Summary for January 20, 2020 Units:  Metric    English   Both
Daily Weekly Monthly Yearly Custom
  High: Low: Average:
Temperature: 8 °C 7 °C 7.3 °C
Dew Point: 7 °C 5 °C 6.3 °C
Humidity: 96% 87% 93%
Wind Speed: 29km/h 5km/h 16.2km/h
Wind Gust: 37km/h - -
Wind- - WNW
Pressure: 1038 hPa 1029.9 hPa -
Precipitation: 0 mm    
Historical Graphs
 
 
Tabular Data for January 20, 2020
Time Temperature Dew Point Pressure Wind Wind Speed Wind Gust Humidity Rainfall Rate (Hourly) solar
00:04 7 °C 5 °C 1038 hPa WNW 11 km/h 14 km/h 90% 0 mm 0 W/m2
00:09 7 °C 5 °C 1037.93 hPa WNW 5 km/h 16 km/h 90% 0 mm 0 W/m2
00:14 7 °C 5 °C 1037.89 hPa WNW 7 km/h 8 km/h 90% 0 mm 0 W/m2
00:19 7 °C 5 °C 1037.96 hPa W 6 km/h 11 km/h 89% 0 mm 0 W/m2
00:24 7 °C 5 °C 1038 hPa WNW 6 km/h 10 km/h 89% 0 mm 0 W/m2
00:29 7 °C 5 °C 1037.96 hPa WNW 8 km/h 7 km/h 89% 0 mm 0 W/m2
00:34 7 °C 5 °C 1037.93 hPa WNW 9 km/h 11 km/h 89% 0 mm 0 W/m2
00:39 7 °C 5 °C 1037.89 hPa WNW 6 km/h 11 km/h 89% 0 mm 0 W/m2
00:44 7 °C 5 °C 1037.76 hPa WNW 10 km/h 13 km/h 89% 0 mm 0 W/m2
00:49 7 °C 5 °C 1037.62 hPa WNW 10 km/h 13 km/h 89% 0 mm 0 W/m2
00:54 7 °C 5 °C 1037.56 hPa WNW 9 km/h 11 km/h 89% 0 mm 0 W/m2
00:59 7 °C 5 °C 1037.66 hPa W 9 km/h 13 km/h 88% 0 mm 0 W/m2
01:04 7 °C 5 °C 1037.86 hPa WNW 12 km/h 14 km/h 88% 0 mm 0 W/m2
01:09 7 °C 5 °C 1037.89 hPa WNW 9 km/h 13 km/h 88% 0 mm 0 W/m2
01:14 7 °C 5 °C 1037.89 hPa WNW 10 km/h 13 km/h 88% 0 mm 0 W/m2
01:19 7 °C 5 °C 1037.79 hPa WNW 11 km/h 13 km/h 88% 0 mm 0 W/m2
01:24 7 °C 5 °C 1037.72 hPa WNW 10 km/h 16 km/h 88% 0 mm 0 W/m2
01:29 7 °C 5 °C 1037.76 hPa WNW 11 km/h 14 km/h 87% 0 mm 0 W/m2
01:34 7 °C 5 °C 1037.76 hPa WNW 9 km/h 16 km/h 87% 0 mm 0 W/m2
01:39 7 °C 5 °C 1037.69 hPa WNW 8 km/h 11 km/h 87% 0 mm 0 W/m2
01:44 7 °C 5 °C 1037.72 hPa WNW 8 km/h 11 km/h 87% 0 mm 0 W/m2
01:49 7 °C 5 °C 1037.59 hPa WNW 9 km/h 10 km/h 88% 0 mm 0 W/m2
01:54 7 °C 5 °C 1037.56 hPa WNW 10 km/h 11 km/h 88% 0 mm 0 W/m2
01:59 7 °C 5 °C 1037.66 hPa WNW 8 km/h 19 km/h 88% 0 mm 0 W/m2
02:04 7 °C 5 °C 1037.76 hPa WNW 10 km/h 11 km/h 88% 0 mm 0 W/m2
02:09 7 °C 5 °C 1037.86 hPa WNW 12 km/h 13 km/h 88% 0 mm 0 W/m2
02:14 7 °C 5 °C 1038 hPa WNW 8 km/h 16 km/h 88% 0 mm 0 W/m2
02:19 7 °C 5 °C 1037.96 hPa WNW 9 km/h 10 km/h 88% 0 mm 0 W/m2
02:24 7 °C 5 °C 1037.93 hPa WNW 9 km/h 14 km/h 88% 0 mm 0 W/m2
02:29 7 °C 5 °C 1037.89 hPa WNW 10 km/h 11 km/h 88% 0 mm 0 W/m2
02:34 7 °C 5 °C 1037.79 hPa W 10 km/h 14 km/h 88% 0 mm 0 W/m2
02:39 7 °C 5 °C 1037.79 hPa WNW 11 km/h 14 km/h 88% 0 mm 0 W/m2
02:44 7 °C 5 °C 1037.86 hPa WNW 11 km/h 21 km/h 88% 0 mm 0 W/m2
02:49 7 °C 5 °C 1037.86 hPa NW 10 km/h 11 km/h 88% 0 mm 0 W/m2
02:54 7 °C 5 °C 1037.62 hPa WNW 12 km/h 13 km/h 88% 0 mm 0 W/m2
02:59 7 °C 5 °C 1037.76 hPa WNW 12 km/h 14 km/h 88% 0 mm 0 W/m2
03:04 7 °C 5 °C 1037.76 hPa WNW 7 km/h 13 km/h 88% 0 mm 0 W/m2
03:09 7 °C 5 °C 1037.62 hPa WNW 11 km/h 11 km/h 88% 0 mm 0 W/m2
03:14 7 °C 5 °C 1037.56 hPa WNW 8 km/h 14 km/h 88% 0 mm 0 W/m2
03:19 7 °C 5 °C 1037.52 hPa NW 9 km/h 11 km/h 88% 0 mm 0 W/m2
03:24 7 °C 5 °C 1037.52 hPa W 9 km/h 11 km/h 88% 0 mm 0 W/m2
03:29 7 °C 5 °C 1037.35 hPa WNW 9 km/h 14 km/h 88% 0 mm 0 W/m2
03:34 7 °C 5 °C 1037.18 hPa WNW 10 km/h 11 km/h 88% 0 mm 0 W/m2
03:39 7 °C 5 °C 1037.15 hPa WNW 8 km/h 13 km/h 88% 0 mm 0 W/m2
03:44 7 °C 5 °C 1037.08 hPa WNW 9 km/h 13 km/h 88% 0 mm 0 W/m2
03:49 7 °C 5 °C 1037.12 hPa W 13 km/h 13 km/h 88% 0 mm 0 W/m2
03:54 7 °C 5 °C 1037.12 hPa W 9 km/h 19 km/h 88% 0 mm 0 W/m2
03:59 7 °C 5 °C 1036.98 hPa W 10 km/h 10 km/h 88% 0 mm 0 W/m2
04:04 7 °C 5 °C 1036.81 hPa WNW 13 km/h 11 km/h 88% 0 mm 0 W/m2
04:09 7 °C 5 °C 1036.64 hPa W 12 km/h 16 km/h 88% 0 mm 0 W/m2
04:14 7 °C 5 °C 1036.57 hPa WNW 11 km/h 13 km/h 88% 0 mm 0 W/m2
04:19 7 °C 5 °C 1036.51 hPa W 14 km/h 16 km/h 89% 0 mm 0 W/m2
04:24 7 °C 5 °C 1036.54 hPa NW 16 km/h 16 km/h 89% 0 mm 0 W/m2
04:29 7 °C 6 °C 1036.57 hPa WNW 16 km/h 16 km/h 90% 0 mm 0 W/m2
04:34 7 °C 6 °C 1036.51 hPa NW 15 km/h 23 km/h 91% 0 mm 0 W/m2
04:39 7 °C 6 °C 1036.44 hPa NNW 15 km/h 19 km/h 91% 0 mm 0 W/m2
04:44 7 °C 6 °C 1036.37 hPa WNW 13 km/h 16 km/h 91% 0 mm 0 W/m2
04:49 7 °C 6 °C 1036.23 hPa WNW 16 km/h 19 km/h 91% 0 mm 0 W/m2
04:54 7 °C 6 °C 1036.2 hPa NW 20 km/h 24 km/h 92% 0 mm 0 W/m2
04:59 7 °C 6 °C 1036.17 hPa WNW 14 km/h 24 km/h 92% 0 mm 0 W/m2
05:04 7 °C 6 °C 1036.2 hPa NW 20 km/h 16 km/h 92% 0 mm 0 W/m2
05:09 7 °C 6 °C 1036.13 hPa NW 18 km/h 35 km/h 92% 0 mm 0 W/m2
05:14 7 °C 6 °C 1036.2 hPa W 17 km/h 21 km/h 92% 0 mm 0 W/m2
05:19 7 °C 6 °C 1036.2 hPa WNW 17 km/h 21 km/h 92% 0 mm 0 W/m2
05:24 7 °C 6 °C 1036.13 hPa NW 16 km/h 19 km/h 92% 0 mm 0 W/m2
05:29 7 °C 6 °C 1036.07 hPa NNW 17 km/h 19 km/h 92% 0 mm 0 W/m2
05:34 7 °C 6 °C 1036.03 hPa NW 15 km/h 19 km/h 92% 0 mm 0 W/m2
05:39 7 °C 6 °C 1036 hPa NW 17 km/h 21 km/h 92% 0 mm 0 W/m2
05:44 7 °C 6 °C 1036 hPa NW 17 km/h 21 km/h 92% 0 mm 0 W/m2
05:49 7 °C 6 °C 1036 hPa NNW 17 km/h 23 km/h 92% 0 mm 0 W/m2
05:54 7 °C 6 °C 1035.96 hPa NW 14 km/h 19 km/h 92% 0 mm 0 W/m2
05:59 7 °C 6 °C 1036.03 hPa W 16 km/h 16 km/h 92% 0 mm 0 W/m2
06:04 7 °C 6 °C 1036.13 hPa NW 16 km/h 19 km/h 92% 0 mm 0 W/m2
06:09 7 °C 6 °C 1036.13 hPa NW 13 km/h 19 km/h 93% 0 mm 0 W/m2
06:14 7 °C 6 °C 1036.1 hPa WNW 11 km/h 16 km/h 93% 0 mm 0 W/m2
06:19 7 °C 6 °C 1036.1 hPa NW 12 km/h 16 km/h 93% 0 mm 0 W/m2
06:24 7 °C 6 °C 1036.1 hPa WNW 15 km/h 19 km/h 93% 0 mm 0 W/m2
06:29 7 °C 6 °C 1036.2 hPa NW 12 km/h 16 km/h 93% 0 mm 0 W/m2
06:34 7 °C 6 °C 1036.23 hPa WNW 15 km/h 16 km/h 93% 0 mm 0 W/m2
06:39 7 °C 6 °C 1036.2 hPa NW 11 km/h 21 km/h 93% 0 mm 0 W/m2
06:44 7 °C 6 °C 1036.17 hPa WNW 13 km/h 14 km/h 93% 0 mm 0 W/m2
06:49 7 °C 6 °C 1036.13 hPa W 12 km/h 16 km/h 92% 0 mm 0 W/m2
06:54 7 °C 6 °C 1036.13 hPa W 10 km/h 14 km/h 92% 0 mm 0 W/m2
06:59 7 °C 6 °C 1036 hPa W 7 km/h 14 km/h 91% 0 mm 0 W/m2
07:04 7 °C 6 °C 1035.86 hPa WNW 13 km/h 12 km/h 91% 0 mm 0 W/m2
07:09 7 °C 5 °C 1035.79 hPa WNW 14 km/h 16 km/h 90% 0 mm 0 W/m2
07:14 7 °C 6 °C 1035.76 hPa NNW 14 km/h 16 km/h 90% 0 mm 0 W/m2
07:19 7 °C 6 °C 1035.83 hPa NW 16 km/h 19 km/h 91% 0 mm 0 W/m2
07:24 7 °C 6 °C 1035.93 hPa WNW 12 km/h 19 km/h 91% 0 mm 0 W/m2
07:29 7 °C 6 °C 1036 hPa WNW 15 km/h 16 km/h 91% 0 mm 0 W/m2
07:34 7 °C 6 °C 1036.03 hPa WNW 9 km/h 23 km/h 91% 0 mm 0 W/m2
07:39 7 °C 6 °C 1036.03 hPa WNW 9 km/h 11 km/h 91% 0 mm 0 W/m2
07:44 7 °C 6 °C 1036 hPa WNW 11 km/h 13 km/h 91% 0 mm 0 W/m2
07:49 7 °C 6 °C 1035.96 hPa WNW 10 km/h 16 km/h 91% 0 mm 0 W/m2
07:54 7 °C 6 °C 1036.03 hPa WNW 13 km/h 14 km/h 91% 0 mm 0 W/m2
07:59 7 °C 6 °C 1035.96 hPa WNW 13 km/h 19 km/h 91% 0 mm 0 W/m2
08:04 7 °C 6 °C 1035.9 hPa WNW 14 km/h 16 km/h 91% 0 mm 0 W/m2
08:09 7 °C 6 °C 1035.93 hPa WNW 12 km/h 16 km/h 91% 0 mm 0 W/m2
08:14 7 °C 6 °C 1036 hPa WNW 8 km/h 14 km/h 91% 0 mm 0 W/m2
08:19 7 °C 6 °C 1036 hPa NW 10 km/h 13 km/h 91% 0 mm 0 W/m2
08:24 7 °C 6 °C 1036 hPa NW 10 km/h 13 km/h 91% 0 mm 0 W/m2
08:29 7 °C 6 °C 1035.83 hPa NW 13 km/h 19 km/h 91% 0 mm 0 W/m2
08:34 7 °C 6 °C 1035.9 hPa NW 14 km/h 16 km/h 91% 0 mm 0 W/m2
08:39 7 °C 6 °C 1035.9 hPa NW 10 km/h 16 km/h 91% 0 mm 0 W/m2
08:44 7 °C 6 °C 1035.9 hPa NNW 15 km/h 18 km/h 91% 0 mm 0 W/m2
08:49 7 °C 6 °C 1035.79 hPa NW 15 km/h 16 km/h 92% 0 mm 0 W/m2
08:54 7 °C 6 °C 1035.79 hPa NW 15 km/h 19 km/h 93% 0 mm 0 W/m2
08:59 7 °C 6 °C 1035.86 hPa NW 16 km/h 19 km/h 93% 0 mm 0 W/m2
09:04 7 °C 6 °C 1035.79 hPa NNW 13 km/h 19 km/h 93% 0 mm 5 W/m2
09:09 7 °C 6 °C 1035.69 hPa NW 15 km/h 18 km/h 93% 0 mm 5 W/m2
09:14 7 °C 6 °C 1035.59 hPa WNW 21 km/h 32 km/h 93% 0 mm 9 W/m2
09:19 7 °C 6 °C 1035.56 hPa NW 19 km/h 24 km/h 93% 0 mm 11 W/m2
09:24 7 °C 6 °C 1035.56 hPa NNW 17 km/h 21 km/h 94% 0 mm 12 W/m2
09:29 7 °C 6 °C 1035.52 hPa WNW 15 km/h 21 km/h 94% 0 mm 16 W/m2
09:34 7 °C 6 °C 1035.52 hPa NW 17 km/h 19 km/h 94% 0 mm 18 W/m2
09:39 7 °C 6 °C 1035.46 hPa NW 19 km/h 19 km/h 93% 0 mm 21 W/m2
09:44 7 °C 6 °C 1035.66 hPa NNW 20 km/h 24 km/h 93% 0 mm 21 W/m2
09:49 7 °C 6 °C 1035.66 hPa NNW 20 km/h 27 km/h 93% 0 mm 25 W/m2
09:54 7 °C 6 °C 1035.73 hPa N 21 km/h 26 km/h 93% 0 mm 28 W/m2
09:59 7 °C 6 °C 1035.69 hPa NW 17 km/h 24 km/h 93% 0 mm 30 W/m2
10:04 7 °C 6 °C 1035.66 hPa NW 20 km/h 27 km/h 93% 0 mm 33 W/m2
10:09 7 °C 6 °C 1035.59 hPa N 20 km/h 21 km/h 92% 0 mm 47 W/m2
10:14 7 °C 6 °C 1035.66 hPa NNE 20 km/h 27 km/h 91% 0 mm 47 W/m2
10:19 7 °C 6 °C 1035.69 hPa N 23 km/h 26 km/h 90% 0 mm 44 W/m2
10:24 7 °C 6 °C 1035.63 hPa NNE 25 km/h 32 km/h 90% 0 mm 40 W/m2
10:29 7 °C 6 °C 1035.52 hPa N 19 km/h 29 km/h 90% 0 mm 51 W/m2
10:34 8 °C 6 °C 1035.49 hPa N 19 km/h 19 km/h 90% 0 mm 56 W/m2
10:39 8 °C 6 °C 1035.56 hPa N 18 km/h 23 km/h 91% 0 mm 42 W/m2
10:44 8 °C 6 °C 1035.56 hPa NW 18 km/h 23 km/h 92% 0 mm 28 W/m2
10:49 8 °C 6 °C 1035.56 hPa N 15 km/h 21 km/h 92% 0 mm 30 W/m2
10:54 8 °C 6 °C 1035.52 hPa N 18 km/h 16 km/h 92% 0 mm 39 W/m2
10:59 8 °C 6 °C 1035.29 hPa N 23 km/h 26 km/h 92% 0 mm 51 W/m2
11:04 8 °C 6 °C 1035.35 hPa NW 17 km/h 32 km/h 92% 0 mm 81 W/m2
11:09 8 °C 6 °C 1035.39 hPa N 22 km/h 21 km/h 92% 0 mm 65 W/m2
11:14 8 °C 6 °C 1035.35 hPa NW 18 km/h 29 km/h 93% 0 mm 33 W/m2
11:19 7 °C 7 °C 1035.32 hPa NW 19 km/h 23 km/h 93% 0 mm 30 W/m2
11:24 7 °C 6 °C 1035.35 hPa NNW 18 km/h 27 km/h 94% 0 mm 42 W/m2
11:29 7 °C 6 °C 1035.29 hPa N 14 km/h 24 km/h 94% 0 mm 62 W/m2
11:34 7 °C 7 °C 1035.29 hPa NNW 20 km/h 19 km/h 95% 0 mm 77 W/m2
11:39 7 °C 7 °C 1035.29 hPa N 24 km/h 26 km/h 95% 0 mm 47 W/m2
11:44 7 °C 7 °C 1035.22 hPa WNW 16 km/h 26 km/h 95% 0 mm 47 W/m2
11:49 7 °C 7 °C 1035.19 hPa WNW 15 km/h 19 km/h 95% 0 mm 62 W/m2
11:54 7 °C 7 °C 1035.12 hPa NW 14 km/h 16 km/h 95% 0 mm 70 W/m2
11:59 7 °C 7 °C 1035.12 hPa NNE 14 km/h 19 km/h 95% 0 mm 83 W/m2
12:04 7 °C 7 °C 1035.12 hPa WNW 15 km/h 16 km/h 95% 0 mm 72 W/m2
12:09 7 °C 7 °C 1035.05 hPa NNW 18 km/h 21 km/h 95% 0 mm 83 W/m2
12:14 7 °C 7 °C 1034.95 hPa NNW 16 km/h 27 km/h 95% 0 mm 100 W/m2
12:19 8 °C 7 °C 1035.02 hPa NNW 22 km/h 19 km/h 95% 0 mm 100 W/m2
12:24 8 °C 7 °C 1034.91 hPa WNW 17 km/h 32 km/h 95% 0 mm 91 W/m2
12:29 8 °C 7 °C 1034.78 hPa NNW 18 km/h 19 km/h 95% 0 mm 81 W/m2
12:34 8 °C 7 °C 1034.78 hPa WNW 22 km/h 29 km/h 95% 0 mm 76 W/m2
12:39 8 °C 7 °C 1034.88 hPa NNW 22 km/h 26 km/h 95% 0 mm 72 W/m2
12:44 8 °C 7 °C 1034.88 hPa NW 18 km/h 26 km/h 95% 0 mm 65 W/m2
12:49 8 °C 7 °C 1034.81 hPa WNW 21 km/h 27 km/h 95% 0 mm 65 W/m2
12:54 8 °C 7 °C 1034.74 hPa NNW 19 km/h 21 km/h 95% 0 mm 74 W/m2
12:59 8 °C 7 °C 1034.74 hPa NNW 19 km/h 26 km/h 95% 0 mm 62 W/m2
13:04 8 °C 7 °C 1034.78 hPa NW 19 km/h 23 km/h 95% 0 mm 63 W/m2
13:09 8 °C 7 °C 1034.81 hPa WSW 18 km/h 23 km/h 96% 0 mm 62 W/m2
13:14 8 °C 7 °C 1034.81 hPa NNW 22 km/h 23 km/h 96% 0 mm 62 W/m2
13:19 8 °C 7 °C 1034.74 hPa NNW 20 km/h 27 km/h 96% 0 mm 67 W/m2
13:24 8 °C 7 °C 1034.74 hPa WNW 22 km/h 29 km/h 96% 0 mm 63 W/m2
13:29 8 °C 7 °C 1034.68 hPa N 21 km/h 26 km/h 96% 0 mm 74 W/m2
13:34 8 °C 7 °C 1034.64 hPa N 21 km/h 26 km/h 96% 0 mm 69 W/m2
13:39 8 °C 7 °C 1034.58 hPa N 24 km/h 27 km/h 96% 0 mm 97 W/m2
13:44 8 °C 7 °C 1034.47 hPa N 21 km/h 27 km/h 96% 0 mm 190 W/m2
13:49 8 °C 7 °C 1034.34 hPa NNW 22 km/h 26 km/h 95% 0 mm 204 W/m2
13:54 8 °C 7 °C 1034.3 hPa NNW 19 km/h 24 km/h 95% 0 mm 162 W/m2
13:59 8 °C 7 °C 1034.3 hPa NNW 19 km/h 26 km/h 95% 0 mm 162 W/m2
14:04 8 °C 7 °C 1034.27 hPa NNW 18 km/h 21 km/h 94% 0 mm 111 W/m2
14:09 8 °C 7 °C 1034.24 hPa NW 23 km/h 21 km/h 94% 0 mm 123 W/m2
14:14 8 °C 7 °C 1034.14 hPa NNW 23 km/h 24 km/h 95% 0 mm 74 W/m2
14:19 8 °C 7 °C 1034.14 hPa NNW 23 km/h 29 km/h 95% 0 mm 69 W/m2
14:24 8 °C 7 °C 1034.1 hPa NNW 23 km/h 27 km/h 95% 0 mm 63 W/m2
14:29 8 °C 7 °C 1034.2 hPa NNW 20 km/h 26 km/h 95% 0 mm 91 W/m2
14:34 8 °C 7 °C 1034.1 hPa NNW 28 km/h 23 km/h 95% 0 mm 70 W/m2
14:39 8 °C 7 °C 1034.07 hPa N 23 km/h 32 km/h 95% 0 mm 51 W/m2
14:44 8 °C 7 °C 1034.03 hPa WNW 27 km/h 26 km/h 96% 0 mm 44 W/m2
14:49 8 °C 7 °C 1034.1 hPa NNW 22 km/h 32 km/h 96% 0 mm 32 W/m2
14:54 8 °C 7 °C 1034.14 hPa NW 28 km/h 29 km/h 96% 0 mm 25 W/m2
14:59 8 °C 7 °C 1034.07 hPa N 24 km/h 34 km/h 96% 0 mm 25 W/m2
15:04 8 °C 7 °C 1034 hPa N 26 km/h 29 km/h 96% 0 mm 18 W/m2
15:09 8 °C 7 °C 1034.1 hPa NW 23 km/h 29 km/h 96% 0 mm 16 W/m2
15:14 7 °C 7 °C 1033.97 hPa N 26 km/h 29 km/h 96% 0 mm 18 W/m2
15:19 7 °C 7 °C 1033.93 hPa NNW 19 km/h 29 km/h 96% 0 mm 16 W/m2
15:24 7 °C 7 °C 1033.8 hPa WNW 25 km/h 26 km/h 96% 0 mm 14 W/m2
15:29 7 °C 7 °C 1033.83 hPa NNW 21 km/h 29 km/h 96% 0 mm 16 W/m2
15:34 7 °C 7 °C 1033.83 hPa NNW 22 km/h 24 km/h 96% 0 mm 14 W/m2
15:39 7 °C 7 °C 1033.83 hPa NNW 23 km/h 29 km/h 96% 0 mm 14 W/m2
15:44 7 °C 7 °C 1033.83 hPa NW 20 km/h 29 km/h 96% 0 mm 14 W/m2
15:49 7 °C 7 °C 1033.86 hPa NW 24 km/h 24 km/h 96% 0 mm 11 W/m2
15:54 7 °C 7 °C 1033.86 hPa NW 24 km/h 29 km/h 96% 0 mm 7 W/m2
15:59 7 °C 7 °C 1033.93 hPa NW 26 km/h 27 km/h 96% 0 mm 5 W/m2
16:04 7 °C 7 °C 1034.03 hPa NW 22 km/h 37 km/h 96% 0 mm 5 W/m2
16:09 7 °C 7 °C 1034 hPa NW 23 km/h 24 km/h 96% 0 mm 0 W/m2
16:14 7 °C 7 °C 1033.9 hPa NW 22 km/h 26 km/h 96% 0 mm 0 W/m2
16:19 7 °C 7 °C 1034.03 hPa NNW 21 km/h 27 km/h 96% 0 mm 0 W/m2
16:24 7 °C 7 °C 1034.07 hPa NW 20 km/h 27 km/h 96% 0 mm 0 W/m2
16:29 7 °C 7 °C 1034.03 hPa W 20 km/h 23 km/h 96% 0 mm 0 W/m2
16:34 7 °C 7 °C 1034 hPa NW 18 km/h 23 km/h 96% 0 mm 0 W/m2
16:39 7 °C 7 °C 1033.93 hPa NW 19 km/h 21 km/h 96% 0 mm 0 W/m2
16:44 7 °C 7 °C 1033.83 hPa N 19 km/h 24 km/h 96% 0 mm 0 W/m2
16:49 7 °C 7 °C 1033.8 hPa NW 20 km/h 23 km/h 96% 0 mm 0 W/m2
16:54 7 °C 7 °C 1033.76 hPa NNW 23 km/h 24 km/h 95% 0 mm 0 W/m2
16:59 7 °C 7 °C 1033.83 hPa N 24 km/h 27 km/h 95% 0 mm 0 W/m2
17:04 7 °C 7 °C 1033.8 hPa NNW 24 km/h 32 km/h 95% 0 mm 0 W/m2
17:09 7 °C 7 °C 1033.66 hPa N 22 km/h 26 km/h 95% 0 mm 0 W/m2
17:14 8 °C 7 °C 1033.49 hPa N 25 km/h 24 km/h 95% 0 mm 0 W/m2
17:19 7 °C 7 °C 1033.36 hPa NNW 24 km/h 27 km/h 95% 0 mm 0 W/m2
17:24 7 °C 7 °C 1033.22 hPa N 24 km/h 27 km/h 95% 0 mm 0 W/m2
17:29 7 °C 7 °C 1033.22 hPa W 20 km/h 29 km/h 95% 0 mm 0 W/m2
17:34 7 °C 7 °C 1033.25 hPa N 17 km/h 23 km/h 95% 0 mm 0 W/m2
17:39 7 °C 7 °C 1033.25 hPa NNE 22 km/h 19 km/h 95% 0 mm 0 W/m2
17:44 7 °C 7 °C 1033.05 hPa N 23 km/h 26 km/h 95% 0 mm 0 W/m2
17:49 7 °C 7 °C 1033.19 hPa NNE 29 km/h 32 km/h 95% 0 mm 0 W/m2
17:54 7 °C 7 °C 1033.25 hPa N 21 km/h 32 km/h 95% 0 mm 0 W/m2
17:59 7 °C 7 °C 1033.25 hPa NNE 22 km/h 24 km/h 95% 0 mm 0 W/m2
18:04 7 °C 7 °C 1033.25 hPa NNW 20 km/h 29 km/h 95% 0 mm 0 W/m2
18:09 7 °C 7 °C 1033.25 hPa NNE 23 km/h 23 km/h 95% 0 mm 0 W/m2
18:14 7 °C 7 °C 1033.25 hPa N 18 km/h 27 km/h 95% 0 mm 0 W/m2
18:19 7 °C 7 °C 1033.19 hPa NNW 17 km/h 23 km/h 95% 0 mm 0 W/m2
18:24 7 °C 7 °C 1033.19 hPa NNW 16 km/h 19 km/h 95% 0 mm 0 W/m2
18:29 7 °C 7 °C 1033.19 hPa NW 18 km/h 24 km/h 95% 0 mm 0 W/m2
18:34 7 °C 7 °C 1033.22 hPa WNW 18 km/h 32 km/h 95% 0 mm 0 W/m2
18:39 8 °C 7 °C 1033.22 hPa WSW 17 km/h 19 km/h 94% 0 mm 0 W/m2
18:44 8 °C 7 °C 1033.15 hPa WNW 18 km/h 19 km/h 94% 0 mm 0 W/m2
18:49 8 °C 7 °C 1033.15 hPa N 18 km/h 23 km/h 94% 0 mm 0 W/m2
18:54 8 °C 7 °C 1033.05 hPa NNW 16 km/h 24 km/h 94% 0 mm 0 W/m2
18:59 8 °C 7 °C 1033.05 hPa W 20 km/h 26 km/h 94% 0 mm 0 W/m2
19:04 7 °C 7 °C 1032.95 hPa NNW 15 km/h 21 km/h 94% 0 mm 0 W/m2
19:09 7 °C 7 °C 1032.95 hPa NNW 16 km/h 19 km/h 94% 0 mm 0 W/m2
19:14 7 °C 7 °C 1032.92 hPa WNW 18 km/h 21 km/h 94% 0 mm 0 W/m2
19:19 7 °C 7 °C 1032.75 hPa NNW 16 km/h 23 km/h 94% 0 mm 0 W/m2
19:24 7 °C 7 °C 1032.68 hPa NNW 18 km/h 16 km/h 94% 0 mm 0 W/m2
19:29 7 °C 7 °C 1032.65 hPa S 17 km/h 21 km/h 94% 0 mm 0 W/m2
19:34 7 °C 7 °C 1032.61 hPa NNW 17 km/h 19 km/h 94% 0 mm 0 W/m2
19:39 7 °C 7 °C 1032.61 hPa NW 17 km/h 21 km/h 95% 0 mm 0 W/m2
19:44 7 °C 7 °C 1032.48 hPa NW 18 km/h 24 km/h 95% 0 mm 0 W/m2
19:49 7 °C 7 °C 1032.41 hPa NNW 19 km/h 21 km/h 95% 0 mm 0 W/m2
19:54 8 °C 7 °C 1032.34 hPa N 20 km/h 26 km/h 95% 0 mm 0 W/m2
19:59 8 °C 7 °C 1032.17 hPa N 20 km/h 21 km/h 95% 0 mm 0 W/m2
20:04 8 °C 7 °C 1032.1 hPa NNW 18 km/h 23 km/h 95% 0 mm 0 W/m2
20:09 8 °C 7 °C 1032 hPa NNW 17 km/h 24 km/h 95% 0 mm 0 W/m2
20:14 8 °C 7 °C 1031.93 hPa NW 18 km/h 21 km/h 94% 0 mm 0 W/m2
20:19 8 °C 7 °C 1031.97 hPa NNW 17 km/h 21 km/h 94% 0 mm 0 W/m2
20:24 8 °C 7 °C 1032.04 hPa NNW 21 km/h 21 km/h 94% 0 mm 0 W/m2
20:29 7 °C 7 °C 1032.07 hPa NW 18 km/h 27 km/h 95% 0 mm 0 W/m2
20:34 7 °C 7 °C 1032.07 hPa N 20 km/h 23 km/h 95% 0 mm 0 W/m2
20:39 7 °C 7 °C 1032.07 hPa NNW 17 km/h 26 km/h 95% 0 mm 0 W/m2
20:44 8 °C 7 °C 1032.07 hPa N 16 km/h 19 km/h 95% 0 mm 0 W/m2
20:49 8 °C 7 °C 1032 hPa NNW 16 km/h 19 km/h 95% 0 mm 0 W/m2
20:54 8 °C 7 °C 1031.93 hPa NW 23 km/h 19 km/h 95% 0 mm 0 W/m2
20:59 8 °C 7 °C 1031.87 hPa NNW 16 km/h 32 km/h 95% 0 mm 0 W/m2
21:04 8 °C 7 °C 1031.8 hPa NW 18 km/h 16 km/h 95% 0 mm 0 W/m2
21:09 8 °C 7 °C 1031.7 hPa NNW 17 km/h 21 km/h 95% 0 mm 0 W/m2
21:14 8 °C 7 °C 1031.66 hPa NNW 16 km/h 19 km/h 95% 0 mm 0 W/m2
21:19 8 °C 7 °C 1031.6 hPa NNW 19 km/h 21 km/h 95% 0 mm 0 W/m2
21:24 8 °C 7 °C 1031.56 hPa NNW 21 km/h 27 km/h 94% 0 mm 0 W/m2
21:29 8 °C 7 °C 1031.53 hPa NNW 14 km/h 21 km/h 94% 0 mm 0 W/m2
21:34 8 °C 7 °C 1031.43 hPa NW 13 km/h 19 km/h 94% 0 mm 0 W/m2
21:39 8 °C 7 °C 1031.29 hPa WNW 15 km/h 19 km/h 94% 0 mm 0 W/m2
21:44 8 °C 7 °C 1031.16 hPa NW 16 km/h 19 km/h 94% 0 mm 0 W/m2
21:49 8 °C 7 °C 1031.02 hPa NW 17 km/h 21 km/h 94% 0 mm 0 W/m2
21:54 7 °C 7 °C 1030.99 hPa WNW 13 km/h 23 km/h 94% 0 mm 0 W/m2
21:59 7 °C 7 °C 1030.95 hPa WNW 12 km/h 16 km/h 94% 0 mm 0 W/m2
22:04 7 °C 7 °C 1030.92 hPa WNW 12 km/h 16 km/h 94% 0 mm 0 W/m2
22:09 7 °C 7 °C 1030.88 hPa NNW 17 km/h 14 km/h 94% 0 mm 0 W/m2
22:14 7 °C 7 °C 1030.78 hPa W 16 km/h 19 km/h 95% 0 mm 0 W/m2
22:19 7 °C 7 °C 1030.72 hPa NW 17 km/h 21 km/h 95% 0 mm 0 W/m2
22:24 7 °C 7 °C 1030.68 hPa NNW 16 km/h 19 km/h 95% 0 mm 0 W/m2
22:29 8 °C 7 °C 1030.68 hPa NNW 20 km/h 19 km/h 95% 0 mm 0 W/m2
22:34 8 °C 7 °C 1030.65 hPa WNW 16 km/h 24 km/h 95% 0 mm 0 W/m2
22:39 8 °C 7 °C 1030.61 hPa NNW 17 km/h 21 km/h 94% 0 mm 0 W/m2
22:44 8 °C 7 °C 1030.48 hPa NNW 14 km/h 19 km/h 94% 0 mm 0 W/m2
22:49 8 °C 7 °C 1030.55 hPa WNW 17 km/h 16 km/h 94% 0 mm 0 W/m2
22:54 8 °C 7 °C 1030.65 hPa NNW 15 km/h 23 km/h 94% 0 mm 0 W/m2
22:59 8 °C 7 °C 1030.65 hPa WNW 16 km/h 19 km/h 94% 0 mm 0 W/m2
23:04 8 °C 7 °C 1030.55 hPa NW 14 km/h 19 km/h 94% 0 mm 0 W/m2
23:09 8 °C 7 °C 1030.48 hPa NW 14 km/h 16 km/h 94% 0 mm 0 W/m2
23:14 8 °C 7 °C 1030.41 hPa NW 18 km/h 16 km/h 94% 0 mm 0 W/m2
23:19 8 °C 7 °C 1030.34 hPa NW 11 km/h 27 km/h 94% 0 mm 0 W/m2
23:24 8 °C 7 °C 1030.31 hPa WNW 16 km/h 14 km/h 94% 0 mm 0 W/m2
23:29 8 °C 7 °C 1030.21 hPa NW 12 km/h 19 km/h 94% 0 mm 0 W/m2
23:34 8 °C 7 °C 1030.17 hPa WNW 12 km/h 19 km/h 94% 0 mm 0 W/m2
23:39 8 °C 7 °C 1030.11 hPa WNW 8 km/h 14 km/h 93% 0 mm 0 W/m2
23:44 8 °C 7 °C 1030.07 hPa WNW 14 km/h 16 km/h 93% 0 mm 0 W/m2
23:49 8 °C 7 °C 1030.07 hPa NW 12 km/h 19 km/h 93% 0 mm 0 W/m2
23:54 8 °C 7 °C 1030.07 hPa WNW 8 km/h 23 km/h 93% 0 mm 0 W/m2
23:59 8 °C 7 °C 1029.9 hPa WNW 12 km/h 14 km/h 93% 0 mm 0 W/m2
Compliments of Weather Underground - 2 mb